Volver al catálogo

FENGYUN 1C DEB

ActivoSSO
NORAD 29932·DEBRIS·🇨🇳 China

Lanzado May 10, 1999 desde Taiyuan Satellite Launch Center

Loading…

Próximos Pases (próximas 24 horas)

TLE

ActualizadoSource: Space-Track

Época: Sep 14, 2026, 12:29 UTC

1 29932U 99025JE  26257.52032325  .00000337  00000-0  18748-3 0  9998
2 29932  98.6313 265.1134 0037385 359.4064 153.6107 14.17061137 14342

Sigue FENGYUN 1C DEB en tiempo real con AllMySat

Download on the App Store